Precipitable_Water
0.78 0.73 0.54 0.42 0.41 0.49 0.52 0.50 0.63 0.70 0.75 0.75 0.70 0.56 0.54 0.51 0.50 0.51 0.47 0.54 0.44 0.32 0.34 0.38 0.39 0.35 0.36 0.35 0.27 0.33 0.32 0.32 0.30 0.23 0.22 0.20 0.19 0.20 0.18 0.20 0.18 0.17 0.16 0.16 0.17 0.14 0.11 0.28 0.25 0.17 0.25 0.28 0.29 0.29
0.79 0.74 0.56 0.43 0.38 0.47 0.50 0.51 0.62 0.68 0.74 0.75 0.68 0.64 0.58 0.58 0.53 0.53 0.42 0.54 0.54 0.40 0.37 0.45 0.45 0.46 0.44 0.43 0.37 0.37 0.34 0.34 0.32 0.26 0.25 0.23 0.20 0.20 0.19 0.15 0.25 0.14 0.19 0.19 0.18 0.20 0.28 0.27 0.27 0.31 0.32 0.29 0.29 0.29
0.80 0.74 0.58 0.43 0.39 0.47 0.48 0.50 0.59 0.67 0.73 0.74 0.69 0.68 0.66 0.60 0.58 0.51 0.47 0.51 0.50 0.41 0.39 0.39 0.37 0.46 0.51 0.49 0.51 0.34 0.36 0.39 0.36 0.39 0.31 0.27 0.20 0.24 0.16 0.18 0.20 0.23 0.26 0.20 0.20 0.24 0.25 0.27 0.31 0.33 0.33 0.32 0.34 0.34
0.82 0.75 0.59 0.43 0.38 0.47 0.47 0.46 0.57 0.65 0.73 0.74 0.73 0.72 0.70 0.59 0.58 0.53 0.46 0.51 0.51 0.44 0.34 0.34 0.49 0.45 0.52 0.53 0.50 0.48 0.42 0.44 0.41 0.38 0.30 0.27 0.22 0.29 0.21 0.22 0.21 0.24 0.27 0.22 0.21 0.24 0.28 0.29 0.31 0.32 0.33 0.35 0.34 0.35
0.86 0.77 0.61 0.44 0.39 0.43 0.44 0.46 0.51 0.64 0.71 0.77 0.73 0.73 0.72 0.65 0.57 0.55 0.50 0.51 0.51 0.43 0.30 0.33 0.43 0.48 0.50 0.50 0.48 0.49 0.46 0.40 0.37 0.33 0.30 0.26 0.29 0.27 0.27 0.25 0.19 0.24 0.21 0.19 0.18 0.27 0.28 0.28 0.31 0.33 0.31 0.32 0.34 0.34
0.88 0.80 0.67 0.43 0.39 0.44 0.41 0.44 0.44 0.59 0.67 0.71 0.77 0.73 0.71 0.65 0.57 0.50 0.38 0.47 0.50 0.50 0.36 0.26 0.41 0.41 0.45 0.47 0.46 0.44 0.44 0.42 0.39 0.35 0.33 0.32 0.35 0.29 0.23 0.20 0.23 0.26 0.28 0.29 0.26 0.31 0.31 0.32 0.33 0.34 0.33 0.33 0.34 0.33
0.90 0.84 0.72 0.44 0.40 0.46 0.39 0.41 0.44 0.54 0.64 0.69 0.72 0.69 0.68 0.66 0.58 0.42 0.32 0.40 0.46 0.47 0.36 0.27 0.28 0.37 0.42 0.42 0.43 0.43 0.45 0.41 0.40 0.37 0.32 0.32 0.32 0.32 0.27 0.19 0.23 0.27 0.29 0.30 0.32 0.32 0.28 0.31 0.30 0.33 0.33 0.32 0.33 0.32
0.92 0.86 0.78 0.48 0.38 0.49 0.41 0.48 0.51 0.49 0.62 0.70 0.70 0.68 0.68 0.66 0.63 0.52 0.48 0.44 0.45 0.35 0.34 0.24 0.24 0.27 0.39 0.33 0.33 0.40 0.37 0.40 0.39 0.36 0.34 0.30 0.32 0.31 0.21 0.23 0.25 0.27 0.29 0.30 0.30 0.33 0.32 0.33 0.33 0.31 0.32 0.31 0.29 0.26
0.94 0.88 0.83 0.58 0.40 0.49 0.50 0.52 0.56 0.52 0.54 0.70 0.72 0.67 0.64 0.60 0.52 0.52 0.56 0.50 0.47 0.36 0.25 0.24 0.18 0.18 0.34 0.33 0.36 0.37 0.38 0.30 0.40 0.31 0.31 0.32 0.28 0.22 0.22 0.24 0.26 0.27 0.26 0.26 0.31 0.31 0.31 0.29 0.29 0.30 0.30 0.27 0.23 0.21
0.97 0.91 0.85 0.64 0.47 0.52 0.56 0.58 0.58 0.51 0.56 0.68 0.62 0.49 0.44 0.54 0.63 0.58 0.48 0.37 0.36 0.37 0.38 0.26 0.30 0.21 0.29 0.30 0.30 0.32 0.34 0.31 0.26 0.30 0.35 0.27 0.23 0.26 0.29 0.30 0.30 0.30 0.31 0.32 0.28 0.28 0.28 0.27 0.28 0.28 0.25 0.24 0.23 0.22
1.00 0.94 0.87 0.69 0.54 0.57 0.63 0.59 0.59 0.58 0.56 0.51 0.46 0.43 0.50 0.57 0.52 0.43 0.33 0.30 0.32 0.29 0.34 0.35 0.35 0.27 0.35 0.26 0.27 0.34 0.29 0.28 0.21 0.27 0.25 0.24 0.21 0.21 0.26 0.29 0.31 0.33 0.35 0.34 0.33 0.33 0.33 0.31 0.29 0.26 0.24 0.23 0.24 0.23
1.03 0.97 0.89 0.73 0.62 0.60 0.68 0.65 0.61 0.55 0.51 0.49 0.47 0.51 0.48 0.41 0.35 0.29 0.25 0.29 0.27 0.25 0.32 0.30 0.32 0.35 0.33 0.37 0.30 0.32 0.26 0.26 0.17 0.30 0.23 0.19 0.20 0.26 0.26 0.28 0.31 0.34 0.34 0.34 0.34 0.32 0.31 0.30 0.28 0.25 0.24 0.24 0.24 0.22
1.05 1.00 0.92 0.77 0.71 0.64 0.70 0.68 0.61 0.59 0.55 0.48 0.39 0.32 0.31 0.32 0.24 0.20 0.18 0.21 0.25 0.30 0.31 0.31 0.30 0.35 0.35 0.36 0.32 0.29 0.24 0.21 0.27 0.19 0.16 0.17 0.20 0.25 0.27 0.31 0.31 0.33 0.33 0.34 0.34 0.34 0.32 0.29 0.28 0.26 0.25 0.25 0.22 0.19
1.06 1.03 0.95 0.82 0.78 0.69 0.72 0.71 0.63 0.57 0.49 0.37 0.32 0.25 0.24 0.22 0.24 0.23 0.23 0.26 0.30 0.31 0.29 0.31 0.31 0.32 0.34 0.31 0.32 0.26 0.29 0.27 0.18 0.14 0.13 0.16 0.19 0.23 0.29 0.31 0.31 0.31 0.33 0.36 0.36 0.34 0.31 0.29 0.27 0.27 0.25 0.22 0.20 0.19
1.05 1.03 0.96 0.86 0.83 0.75 0.78 0.75 0.68 0.61 0.48 0.36 0.34 0.25 0.25 0.28 0.30 0.30 0.31 0.28 0.29 0.32 0.32 0.30 0.30 0.31 0.29 0.29 0.29 0.28 0.23 0.19 0.19 0.15 0.16 0.19 0.21 0.23 0.25 0.27 0.30 0.32 0.37 0.37 0.36 0.33 0.31 0.29 0.27 0.25 0.23 0.22 0.21 0.19
1.04 0.97 0.90 0.87 0.87 0.80 0.83 0.79 0.69 0.61 0.52 0.41 0.36 0.30 0.32 0.28 0.29 0.30 0.29 0.28 0.32 0.32 0.33 0.32 0.28 0.25 0.24 0.26 0.24 0.22 0.20 0.18 0.18 0.20 0.22 0.22 0.23 0.23 0.24 0.26 0.30 0.35 0.39 0.39 0.36 0.33 0.31 0.28 0.25 0.23 0.22 0.21 0.19 0.18
0.98 0.85 0.94 0.87 0.87 0.84 0.83 0.75 0.68 0.57 0.47 0.42 0.37 0.40 0.36 0.30 0.30 0.31 0.32 0.31 0.37 0.31 0.25 0.26 0.22 0.22 0.26 0.22 0.22 0.24 0.20 0.20 0.24 0.23 0.25 0.24 0.24 0.24 0.25 0.27 0.31 0.34 0.36 0.37 0.35 0.33 0.30 0.27 0.24 0.22 0.19 0.19 0.20 0.19
0.87 0.93 0.92 0.87 0.88 0.83 0.76 0.72 0.64 0.56 0.45 0.46 0.39 0.39 0.38 0.35 0.30 0.30 0.32 0.35 0.33 0.31 0.30 0.26 0.28 0.22 0.20 0.19 0.20 0.23 0.25 0.26 0.26 0.25 0.24 0.27 0.27 0.27 0.28 0.28 0.31 0.33 0.35 0.38 0.35 0.31 0.27 0.24 0.23 0.21 0.20 0.20 0.20 0.18
0.91 0.92 0.89 0.89 0.85 0.75 0.64 0.64 0.63 0.48 0.48 0.49 0.50 0.47 0.43 0.39 0.38 0.37 0.37 0.37 0.38 0.38 0.33 0.29 0.24 0.21 0.23 0.27 0.26 0.27 0.27 0.27 0.25 0.26 0.28 0.28 0.28 0.29 0.30 0.31 0.33 0.34 0.37 0.36 0.31 0.28 0.26 0.25 0.23 0.22 0.22 0.21 0.18 0.18
0.91 0.90 0.87 0.87 0.82 0.66 0.57 0.56 0.64 0.53 0.46 0.49 0.53 0.48 0.45 0.42 0.41 0.37 0.37 0.36 0.35 0.33 0.28 0.25 0.23 0.25 0.26 0.28 0.29 0.27 0.27 0.27 0.29 0.27 0.27 0.29 0.30 0.31 0.31 0.32 0.34 0.35 0.36 0.33 0.30 0.29 0.26 0.24 0.24 0.24 0.23 0.21 0.18 0.18
0.81 0.82 0.83 0.79 0.70 0.67 0.59 0.54 0.50 0.51 0.52 0.48 0.49 0.50 0.47 0.47 0.43 0.39 0.35 0.39 0.34 0.30 0.27 0.29 0.27 0.27 0.30 0.30 0.33 0.34 0.33 0.30 0.27 0.26 0.26 0.26 0.30 0.33 0.33 0.35 0.35 0.35 0.32 0.31 0.29 0.27 0.26 0.24 0.24 0.24 0.22 0.19 0.20 0.19
0.76 0.79 0.70 0.70 0.60 0.59 0.56 0.58 0.50 0.51 0.47 0.46 0.45 0.46 0.42 0.40 0.40 0.40 0.43 0.37 0.34 0.33 0.31 0.29 0.31 0.32 0.31 0.29 0.29 0.34 0.37 0.39 0.31 0.29 0.29 0.30 0.28 0.30 0.31 0.32 0.34 0.32 0.31 0.31 0.29 0.26 0.25 0.25 0.25 0.23 0.21 0.20 0.20 0.19
0.73 0.70 0.62 0.59 0.51 0.49 0.47 0.56 0.45 0.45 0.38 0.39 0.41 0.38 0.39 0.40 0.42 0.46 0.38 0.38 0.37 0.39 0.34 0.33 0.34 0.36 0.34 0.34 0.33 0.33 0.35 0.36 0.33 0.28 0.28 0.29 0.29 0.30 0.30 0.33 0.34 0.30 0.30 0.31 0.31 0.28 0.26 0.26 0.24 0.22 0.20 0.20 0.19 0.18
0.70 0.58 0.49 0.46 0.47 0.42 0.45 0.40 0.44 0.41 0.39 0.36 0.35 0.34 0.36 0.38 0.42 0.39 0.35 0.37 0.38 0.40 0.36 0.33 0.36 0.35 0.35 0.34 0.31 0.31 0.34 0.36 0.35 0.29 0.29 0.29 0.27 0.28 0.32 0.34 0.33 0.33 0.32 0.32 0.31 0.28 0.26 0.25 0.23 0.21 0.21 0.20 0.19 0.18
0.46 0.43 0.45 0.40 0.45 0.39 0.35 0.34 0.35 0.35 0.32 0.34 0.34 0.33 0.35 0.38 0.34 0.33 0.31 0.33 0.35 0.36 0.35 0.35 0.35 0.34 0.32 0.31 0.30 0.31 0.36 0.37 0.35 0.28 0.28 0.29 0.28 0.29 0.32 0.34 0.32 0.31 0.35 0.33 0.28 0.27 0.26 0.24 0.22 0.21 0.20 0.19 0.19 0.18
0.37 0.42 0.39 0.39 0.38 0.36 0.34 0.31 0.32 0.33 0.34 0.33 0.34 0.37 0.37 0.34 0.31 0.29 0.32 0.35 0.35 0.34 0.34 0.32 0.30 0.29 0.30 0.32 0.30 0.30 0.36 0.41 0.40 0.28 0.27 0.29 0.29 0.30 0.32 0.30 0.27 0.30 0.36 0.33 0.28 0.26 0.25 0.22 0.21 0.20 0.20 0.20 0.19 0.18
0.35 0.37 0.42 0.46 0.41 0.39 0.35 0.36 0.37 0.34 0.32 0.31 0.33 0.33 0.33 0.30 0.29 0.31 0.36 0.34 0.31 0.31 0.32 0.33 0.33 0.32 0.31 0.34 0.35 0.37 0.42 0.43 0.37 0.28 0.29 0.30 0.32 0.36 0.32 0.30 0.29 0.32 0.35 0.33 0.28 0.26 0.24 0.22 0.21 0.20 0.20 0.20 0.19 0.18
0.41 0.41 0.34 0.38 0.39 0.38 0.34 0.34 0.33 0.32 0.33 0.36 0.35 0.31 0.30 0.29 0.29 0.33 0.31 0.31 0.32 0.32 0.33 0.35 0.37 0.38 0.37 0.37 0.39 0.41 0.42 0.42 0.36 0.28 0.27 0.29 0.34 0.34 0.36 0.38 0.35 0.35 0.35 0.31 0.28 0.27 0.24 0.22 0.21 0.21 0.20 0.19 0.18 0.18
0.37 0.40 0.39 0.34 0.35 0.35 0.34 0.33 0.33 0.35 0.38 0.36 0.32 0.31 0.32 0.33 0.32 0.30 0.31 0.31 0.32 0.31 0.29 0.30 0.33 0.37 0.39 0.39 0.41 0.46 0.43 0.39 0.30 0.23 0.23 0.26 0.29 0.33 0.36 0.37 0.38 0.37 0.34 0.28 0.28 0.27 0.24 0.23 0.22 0.22 0.21 0.19 0.19 0.19
0.34 0.39 0.34 0.34 0.33 0.32 0.34 0.38 0.37 0.39 0.40 0.40 0.39 0.36 0.33 0.31 0.32 0.34 0.32 0.31 0.29 0.29 0.31 0.32 0.33 0.34 0.33 0.34 0.40 0.48 0.48 0.38 0.30 0.27 0.28 0.32 0.31 0.31 0.33 0.35 0.37 0.36 0.30 0.28 0.27 0.26 0.25 0.24 0.24 0.22 0.20 0.18 0.19 0.18
0.38 0.37 0.34 0.35 0.33 0.36 0.39 0.40 0.40 0.40 0.39 0.36 0.34 0.30 0.28 0.29 0.30 0.31 0.31 0.32 0.32 0.33 0.32 0.32 0.34 0.35 0.36 0.38 0.45 0.46 0.43 0.37 0.33 0.35 0.34 0.31 0.30 0.32 0.33 0.38 0.38 0.31 0.28 0.27 0.26 0.24 0.23 0.22 0.21 0.19 0.18 0.18 0.18 0.17
0.37 0.36 0.35 0.33 0.34 0.37 0.39 0.37 0.36 0.33 0.31 0.29 0.27 0.28 0.27 0.26 0.23 0.26 0.30 0.31 0.30 0.30 0.32 0.33 0.33 0.35 0.41 0.48 0.51 0.45 0.35 0.32 0.33 0.34 0.32 0.31 0.32 0.34 0.37 0.38 0.31 0.28 0.28 0.26 0.24 0.23 0.23 0.21 0.20 0.18 0.18 0.18 0.17 0.16
0.35 0.36 0.35 0.34 0.33 0.32 0.33 0.32 0.30 0.28 0.28 0.26 0.25 0.26 0.26 0.26 0.23 0.27 0.31 0.32 0.31 0.32 0.33 0.36 0.38 0.42 0.48 0.53 0.52 0.41 0.37 0.37 0.35 0.34 0.34 0.31 0.29 0.33 0.36 0.32 0.28 0.29 0.27 0.24 0.23 0.23 0.21 0.20 0.18 0.18 0.18 0.17 0.16 0.17
Wind_Speed
20 20 15 11 8 6 6 7 9 11 12 12 14 16 19 18 17 15 14 13 12 12 11 9 9 8 7 6 6 6 5 4 4 5 5 4 4 4 4 4 4 4 4 2 3 3 4 2 3 4 5 6 7 8
16 18 16 11 9 7 5 3 4 6 7 8 10 12 14 16 14 11 11 11 11 11 9 8 8 6 5 4 3 4 3 4 4 3 3 3 3 3 3 3 3 4 2 3 2 3 4 3 5 5 7 8 9 11
15 15 16 11 8 8 7 4 3 2 2 2 4 6 7 9 10 9 9 8 8 8 7 5 5 4 3 3 3 2 2 2 2 2 2 3 3 3 3 3 4 3 3 4 6 4 5 6 7 8 9 10 12 13
15 13 14 13 9 9 9 8 6 4 2 3 3 1 2 4 6 7 6 5 5 4 3 3 3 2 1 1 2 1 1 1 1 2 3 3 4 4 5 5 5 4 3 5 7 8 7 8 9 9 10 12 13 15
15 13 12 12 10 9 10 12 10 8 6 6 6 5 3 1 1 2 3 3 2 2 1 2 2 2 2 2 2 3 3 3 3 4 4 5 5 6 6 7 8 6 6 5 7 6 6 7 9 12 12 13 15 16
16 14 12 11 10 9 11 13 14 12 10 9 9 9 8 6 4 3 3 1 1 2 2 2 4 5 5 4 4 4 5 5 6 6 6 6 7 6 7 7 7 5 6 7 7 8 9 9 11 14 13 15 16 18
19 15 14 12 10 10 10 13 15 16 15 13 12 11 11 11 9 7 6 7 6 5 4 5 5 6 7 7 7 7 7 8 8 8 9 9 9 9 10 10 9 8 8 8 9 10 11 12 13 13 14 15 17 19
21 18 16 14 11 10 10 12 15 16 17 16 15 13 12 12 13 12 10 10 10 8 8 7 8 7 8 9 9 9 9 10 10 11 10 10 10 10 11 10 8 8 8 10 11 12 13 12 13 14 15 17 19 21
23 20 17 16 14 12 11 11 13 16 16 15 15 15 16 16 16 15 14 13 13 12 11 10 10 10 9 10 11 11 11 11 12 12 13 11 12 11 11 10 10 10 10 11 11 12 13 13 14 15 17 18 21 23
25 23 20 18 16 14 12 8 6 11 13 12 12 13 15 17 17 17 16 15 14 15 16 16 15 13 12 11 12 11 12 13 12 13 12 13 16 19 16 13 11 11 12 11 12 14 14 15 15 17 18 20 22 24
27 25 22 20 18 16 14 10 8 8 10 11 12 12 12 12 15 17 17 16 15 15 15 15 17 17 16 14 14 14 14 14 14 14 13 14 14 14 13 13 13 13 13 13 15 15 15 15 16 17 19 21 24 27
29 27 24 22 21 19 17 15 13 11 10 10 10 11 11 12 13 14 17 17 17 17 15 16 16 16 17 17 16 17 17 16 17 15 15 14 15 14 12 12 12 13 13 13 14 14 15 15 16 18 20 23 26 29
32 30 27 24 23 22 21 19 17 14 12 10 9 9 10 12 12 12 15 16 17 18 17 16 15 15 16 17 17 17 18 20 19 19 18 17 16 14 14 13 12 13 13 14 14 14 15 16 18 20 22 25 28 30
36 33 30 27 25 25 24 23 21 18 15 13 12 12 10 10 11 13 13 13 16 18 18 18 17 16 16 16 17 16 18 18 19 19 19 19 18 16 14 14 14 14 14 15 15 15 16 18 20 22 24 27 29 32
39 36 33 31 28 26 26 25 24 21 18 17 14 14 14 13 12 12 12 13 14 14 14 15 17 19 19 19 18 17 16 18 18 17 17 17 16 15 15 16 16 16 16 16 16 17 18 19 21 23 25 28 31 33
41 38 37 33 30 29 28 27 25 23 22 21 20 16 15 14 15 15 14 14 13 12 13 15 15 15 20 19 18 20 17 19 18 18 19 18 16 17 17 17 18 18 17 17 17 18 19 20 22 24 27 29 31 34
44 40 39 35 32 31 30 27 26 25 24 24 21 22 20 18 17 17 17 17 16 15 15 14 14 16 15 17 20 20 19 20 21 23 22 20 19 20 19 19 19 18 18 18 18 19 20 21 23 25 28 30 33 35
44 42 41 38 35 32 30 30 28 28 29 28 23 22 22 21 19 18 18 17 15 17 17 18 16 17 18 18 19 21 22 22 22 23 22 21 20 20 19 19 19 19 19 19 19 20 21 22 24 26 28 30 33 35
46 45 43 41 38 32 29 31 32 29 30 28 26 25 24 23 24 23 23 23 23 23 21 19 19 19 21 22 24 25 26 27 26 24 22 22 21 21 21 20 20 19 20 20 20 20 21 22 24 26 28 30 33 35
46 46 45 43 40 32 29 30 32 33 29 29 27 26 26 26 26 26 26 26 25 26 25 24 24 24 24 24 23 24 24 24 25 26 27 26 25 23 22 21 21 20 20 20 20 20 21 23 25 26 28 30 32 34
40 43 43 42 39 34 32 29 29 29 30 32 29 27 27 27 28 28 28 28 29 30 29 29 31 31 30 30 30 29 28 29 29 29 27 26 25 24 23 22 21 21 21 20 20 21 21 23 25 26 28 30 32 34
37 41 39 39 35 35 33 33 29 29 27 27 27 30 29 28 28 29 29 31 33 33 32 32 34 35 34 34 34 35 34 32 31 30 27 26 25 24 24 23 22 22 21 21 21 21 22 23 24 26 27 30 32 33
40 37 36 35 32 34 33 35 33 31 27 28 28 28 29 29 29 27 30 33 35 35 36 36 37 36 37 36 34 35 34 33 32 31 30 29 27 26 24 24 23 21 21 21 20 21 22 23 24 25 27 29 31 32
39 36 34 35 35 33 32 33 33 32 32 31 29 29 29 29 28 30 32 33 34 34 35 36 36 35 36 37 37 36 35 34 33 32 31 30 28 27 25 23 23 22 21 20 20 20 21 22 23 25 26 28 30 30
35 35 34 34 34 33 34 33 33 33 32 31 31 31 29 28 30 32 33 33 33 35 36 36 37 38 39 39 38 37 35 35 33 33 33 32 29 27 24 23 22 21 21 20 20 20 21 22 23 24 25 27 29 30
36 35 37 36 33 33 35 33 35 33 31 30 31 30 30 30 32 35 32 32 36 35 36 36 37 37 37 37 37 35 35 35 33 33 33 33 31 29 25 24 22 22 21 20 19 20 20 21 22 23 25 27 28 28
35 34 35 34 33 32 33 31 31 31 31 31 29 29 29 31 33 34 33 33 34 33 34 34 33 34 35 34 34 33 33 32 33 32 32 32 30 28 26 23 23 22 20 20 20 20 20 20 21 22 24 26 27 27
34 34 33 34 33 32 31 31 32 33 32 31 29 31 31 33 34 34 33 32 32 32 32 32 32 32 32 32 31 31 30 29 29 29 30 30 27 26 24 22 21 20 19 19 19 19 19 19 20 22 24 25 26 26
33 33 32 32 32 33 34 33 33 33 32 32 33 34 36 36 36 35 35 35 34 32 31 30 30 29 29 29 29 30 30 30 30 32 32 29 27 25 23 21 20 19 18 17 17 17 18 19 20 22 24 25 25 26
33 34 32 32 33 35 34 34 34 33 34 35 35 36 36 36 35 34 34 33 32 32 31 31 31 30 28 27 28 27 30 31 32 32 31 28 25 24 22 20 19 18 17 17 16 16 17 18 19 22 23 24 25 26
30 31 31 32 33 32 31 31 31 31 32 33 34 35 36 34 34 33 33 32 32 31 30 28 28 27 26 26 24 24 28 31 31 30 28 26 24 23 21 20 19 17 16 16 15 16 16 18 20 21 22 23 25 25
29 31 30 30 30 30 30 30 30 30 30 30 30 30 31 31 32 32 31 30 29 29 30 29 27 26 25 23 23 26 26 30 31 29 27 25 23 21 19 18 17 16 15 15 15 15 16 17 19 21 21 22 24 25
27 28 28 28 27 28 28 27 27 27 29 30 31 30 30 30 30 29 28 29 29 28 27 26 24 23 22 21 24 25 27 29 31 30 26 24 22 19 17 17 16 15 14 14 14 14 15 17 19 20 20 22 23 24
Wind_Direction
335 339 338 318 311 316 349 10 25 33 45 64 69 64 61 68 80 91 94 93 103 107 114 112 113 116 113 104 103 102 86 79 70 69 66 63 52 55 30 43 26 21 20 16 18 357 332 359 341 331 322 323 321 317
326 334 336 321 298 288 299 327 9 28 49 72 78 69 66 67 71 84 91 94 97 105 115 112 113 115 115 111 97 106 85 72 62 57 53 48 35 43 25 3 6 356 0 348 341 324 333 304 329 319 318 318 314 313
312 324 335 321 296 268 263 265 290 343 30 108 99 75 69 60 58 79 94 97 103 103 109 117 118 116 118 115 116 87 78 43 56 48 17 16 356 4 341 332 347 316 320 310 337 324 304 296 304 305 308 312 313 313
296 309 326 329 297 261 253 247 250 265 258 212 203 164 60 55 59 75 101 91 108 113 99 138 142 143 126 154 197 237 315 323 336 346 340 332 327 333 318 308 306 303 313 302 302 297 306 303 306 304 303 311 311 313
281 291 310 326 307 267 252 245 241 242 247 238 229 233 236 246 36 82 95 81 108 119 75 196 212 216 237 252 246 250 263 285 297 309 314 308 312 318 306 309 294 278 279 291 299 310 312 313 315 313 307 307 309 311
269 275 288 309 312 281 254 244 241 236 241 248 238 235 241 245 252 242 230 240 313 294 274 260 256 247 249 261 271 278 280 283 286 293 295 298 298 302 309 304 298 283 293 303 296 306 308 309 311 312 309 311 314 314
259 264 270 287 300 294 264 250 242 238 239 244 245 243 245 242 242 241 253 266 276 267 271 279 279 263 253 259 265 272 276 278 283 287 287 290 288 289 292 288 291 285 286 294 296 299 303 301 305 309 311 314 315 315
250 255 260 270 280 287 282 260 249 242 236 239 244 246 249 244 240 247 258 269 265 266 269 269 274 278 263 259 265 275 276 277 279 280 285 285 290 287 292 285 284 285 291 293 292 300 303 305 308 309 310 312 313 314
245 249 253 260 266 273 281 283 256 235 230 234 242 248 253 254 248 248 257 267 261 254 264 264 266 275 274 266 266 273 277 280 280 277 277 282 276 275 281 280 274 281 288 295 298 300 300 301 305 307 309 313 315 316
240 244 247 252 256 260 269 272 244 217 219 227 244 259 261 253 252 252 256 264 264 260 260 261 265 268 272 271 269 274 276 277 282 280 284 276 278 270 273 278 282 281 286 293 300 300 300 301 303 306 309 314 316 318
236 239 242 245 248 248 248 242 228 219 225 241 251 259 267 267 255 254 255 257 261 266 263 266 261 260 264 267 267 269 275 277 280 282 280 286 288 284 273 265 273 281 285 289 299 301 297 301 303 308 312 314 317 320
233 235 238 240 240 239 237 233 230 239 248 252 257 257 263 270 267 260 254 255 253 259 265 265 264 262 259 262 266 271 271 275 273 278 281 285 287 281 279 275 278 280 285 290 295 299 303 306 308 311 314 317 319 321
230 232 234 235 235 233 232 230 230 237 242 253 266 266 264 267 269 259 253 255 255 257 261 265 267 261 262 261 264 267 269 268 278 276 274 277 282 278 272 277 280 284 287 291 295 298 301 306 309 312 315 318 320 322
229 230 231 233 233 230 229 228 227 235 245 254 257 264 259 262 267 265 266 265 262 265 264 263 263 264 265 264 263 266 267 273 275 277 277 280 274 265 266 270 279 283 287 290 292 296 300 304 309 313 316 319 321 323
228 228 229 230 230 228 227 227 227 237 243 250 255 259 254 260 269 273 272 279 275 272 272 269 268 264 265 264 263 267 272 270 270 279 282 284 270 259 264 271 276 281 285 287 291 295 300 304 309 312 316 319 322 325
225 225 228 228 227 225 223 224 231 238 245 249 252 259 260 264 263 265 268 276 276 274 279 281 278 277 265 260 260 258 262 267 276 279 284 279 266 265 269 271 276 280 282 286 289 294 299 303 308 312 317 320 323 326
220 227 224 223 223 222 221 228 233 238 246 249 254 252 255 264 264 262 264 268 263 269 278 283 278 271 281 268 262 260 264 273 280 282 281 273 266 268 269 273 276 278 281 285 289 294 299 304 310 314 318 321 324 327
225 224 219 218 219 219 228 230 234 241 246 247 252 254 253 257 261 262 263 260 266 272 273 275 280 275 272 271 268 267 271 278 282 284 278 271 267 267 270 273 275 276 280 286 290 293 298 303 309 313 318 322 325 328
223 221 218 217 218 223 229 233 235 246 246 249 251 254 254 256 258 261 261 263 267 270 272 273 276 278 273 270 270 272 275 275 277 278 275 268 267 268 270 271 273 277 281 285 288 292 297 303 309 314 318 323 326 328
221 218 217 215 215 226 231 238 237 243 248 250 251 253 254 256 257 259 261 263 264 266 268 269 269 276 276 273 273 274 277 278 278 273 268 265 266 267 267 267 270 277 284 285 287 291 297 303 309 314 319 323 326 329
214 216 213 213 219 227 232 237 240 247 248 251 253 253 257 258 258 259 261 261 263 266 271 270 271 272 274 273 271 275 278 275 272 272 267 261 261 261 263 265 270 277 280 282 286 290 296 304 309 314 319 323 326 329
218 208 211 216 224 228 234 236 243 245 250 256 253 253 258 260 261 261 261 260 264 267 270 273 272 271 271 273 273 271 272 274 271 266 259 255 256 258 259 262 270 274 277 280 284 289 296 303 309 314 319 323 326 329
206 212 216 220 226 229 239 234 240 244 250 255 255 259 261 262 264 263 266 266 268 269 271 271 272 271 270 272 274 272 269 266 266 260 253 253 254 255 256 263 267 270 276 280 284 290 297 302 308 314 319 323 326 329
210 215 221 222 226 230 234 238 241 244 251 253 257 263 265 264 266 267 270 271 272 274 272 272 271 272 273 272 271 269 265 265 263 255 250 248 248 250 253 261 265 269 273 278 283 289 295 301 307 313 319 323 326 329
214 219 223 226 228 232 237 238 242 247 250 254 255 262 266 266 268 271 272 275 276 277 274 272 271 270 270 270 270 267 264 260 258 251 245 242 242 244 254 262 264 266 271 277 281 288 294 300 307 313 318 322 325 329
220 223 222 225 231 235 238 241 241 246 251 254 257 263 266 267 269 270 274 278 279 277 274 272 272 271 269 268 267 265 263 257 254 249 241 236 236 240 249 255 261 266 270 274 280 286 292 299 306 312 317 321 325 329
219 225 228 232 233 236 239 242 244 247 249 253 259 260 263 266 270 275 280 277 277 279 277 275 273 270 269 270 265 266 259 254 249 243 234 230 233 240 245 252 260 266 267 271 277 283 290 298 305 311 316 321 324 327
226 227 227 227 232 235 238 242 244 247 251 254 254 258 262 264 271 276 276 279 281 280 280 278 274 271 270 269 267 262 255 250 241 231 225 225 231 236 244 253 258 263 268 272 277 283 290 298 305 311 316 321 323 326
228 227 228 232 235 237 241 244 247 251 253 254 257 261 266 268 272 273 275 277 279 278 278 275 274 273 273 270 266 259 247 238 228 222 218 224 230 237 240 249 259 262 265 271 275 282 291 299 306 312 318 321 323 325
229 227 233 233 236 240 245 246 251 255 256 258 261 266 268 271 272 272 273 274 274 274 274 272 269 269 268 264 271 253 236 227 221 217 218 221 228 230 235 246 256 259 263 268 274 283 291 301 309 316 320 321 324 325
225 230 235 236 240 245 248 251 255 257 257 259 261 264 268 270 271 271 272 271 271 271 270 269 268 266 263 262 258 235 226 220 216 215 217 219 223 228 236 248 252 256 260 265 273 283 293 302 310 316 319 321 324 326
230 232 235 238 243 245 249 251 251 253 256 259 262 264 267 269 269 269 269 268 267 267 265 264 261 259 255 253 239 227 220 210 209 211 212 218 223 227 238 242 248 252 257 265 275 285 295 304 312 316 318 321 325 327
235 237 238 240 242 243 244 245 250 255 258 260 261 262 264 265 266 269 268 264 264 264 262 257 250 243 241 243 227 217 211 208 205 206 210 213 216 225 233 241 246 250 256 266 277 288 297 307 313 316 319 323 327 328